[[{"header":{"parameterUnit":"m.s-1","parameterCategory":1,"la1":30.2991,"la2":30.254,"lo1":-89.0895,"lo2":-89.0444,"dx":0.0017,"dy":0.0017,"nx":28,"ny":28,"refTime":"2022-11-07T03:00:00:Z","depth":0,"parameterNumber":2,"parameterNumberName":"U-component_of_WINDS"},"data":[0,0,0,0,0,0,0,0,0,0,0,0,0,0,0,0,0,0,0,0,0,0,0,0,0,0,0,0,0,0,0,0,0,0,0,0,0,0,0,0,0,0,0,0,0,0,0,0,0,0,0,0,0,0,0,0,0,0,-2.577,-2.577,0,-2.571,-2.5709,-2.5709,-2.5621,-2.5619,-2.5618,-2.5616,-2.5553,-2.5553,-2.5552,0,0,0,0,0,0,0,0,0,0,0,0,0,-2.581,-2.581,-2.577,-2.577,-2.5769,-2.571,-2.5709,-2.5708,-2.5621,-2.5619,-2.5617,-2.5616,-2.5553,-2.5553,-2.5552,0,0,0,0,0,0,0,0,0,0,0,0,0,-2.5776,-2.581,-2.5771,-2.5718,-2.5713,-2.571,-2.5709,-2.5708,-2.5622,-2.5619,-2.5617,-2.5615,-2.5553,-2.5553,-2.5552,-2.5595,0,0,-2.5551,-2.5551,0,0,0,0,0,0,0,0,-2.5778,-2.5774,-2.5727,-2.5722,-2.5716,-2.5671,-2.57,-2.567,-2.5622,-2.5656,-2.5616,-2.5614,-2.5594,-2.559,-2.5583,-2.5592,-2.5589,-2.5551,-2.5551,-2.555,-2.555,0,0,0,0,0,0,0,-2.578,-2.5776,-2.5746,-2.5726,-2.572,-2.5698,-2.569,-2.5694,-2.5638,-2.5653,-2.5647,-2.5641,-2.559,-2.5584,-2.5581,-2.5589,-2.5551,-2.5551,-2.555,-2.555,-2.5631,-2.5633,0,0,0,0,0,0,-2.579,-2.5779,-2.5748,-2.5745,-2.5742,-2.5699,-2.5691,-2.5687,-2.5638,-2.5628,-2.5643,-2.5637,-2.5586,-2.5582,-2.5579,-2.5626,-2.555,-2.555,-2.555,-2.5628,-2.5631,-2.5634,0,0,0,0,0,0,-2.5792,-2.5788,-2.5751,-2.576,-2.5754,-2.5701,-2.5698,-2.5687,-2.5681,-2.563,-2.562,-2.5646,-2.5584,-2.5579,-2.5592,-2.5623,-2.555,-2.555,-2.5625,-2.5629,-2.5633,-2.5721,0,0,0,0,0,0,-2.5793,-2.5789,-2.5805,-2.5761,-2.5753,-2.5765,-2.57,-2.5688,-2.5681,-2.5673,-2.5631,-2.5622,-2.5582,-2.5593,-2.5592,-2.5621,-2.5549,-2.5622,-2.5627,-2.5631,-2.5715,-2.5727,-2.5738,0,0,0,0,0,-2.5795,-2.5832,-2.5806,-2.5803,-2.5772,-2.5767,-2.5763,-2.5716,-2.5684,-2.5699,-2.5667,-2.5623,-2.562,-2.5595,-2.5593,-2.5622,-2.562,-2.5626,-2.5631,-2.571,-2.5725,-2.5737,0,0,0,0,0,0,-2.588,-2.5825,-2.5796,-2.582,-2.5799,-2.5753,-2.577,-2.5733,-2.5721,-2.5713,-2.5656,-2.5647,-2.5667,-2.5646,-2.562,-2.5662,-2.5614,-2.5619,-2.5675,-2.5688,-2.5699,-2.5703,-2.5549,0,0,0,0,0,-2.5902,-2.5903,-2.5855,-2.588,-2.5872,-2.5823,-2.5819,-2.5786,-2.5761,-2.5752,-2.572,-2.5698,-2.5692,-2.5689,-2.5681,-2.5712,-2.5702,-2.5732,-2.5743,-2.5752,-2.5757,-2.5773,-2.5785,-2.5651,-2.5651,-2.5651,0,0,-2.5946,-2.5916,-2.592,-2.5897,-2.5876,-2.5879,-2.5816,-2.5821,-2.5822,-2.5752,-2.5762,-2.5739,-2.5711,-2.5734,-2.5742,-2.5716,-2.5792,-2.5759,-2.5767,-2.5766,-2.5779,-2.5792,-2.5803,-2.5655,-2.5654,-2.5654,0,0,-2.6028,-2.6006,-2.6025,-2.6006,-2.5977,-2.5945,-2.595,-2.591,-2.5892,-2.5902,-2.585,-2.585,-2.5841,-2.5823,-2.5813,-2.5891,-2.5851,-2.589,-2.5948,-2.5964,-2.5975,-2.5984,-2.6011,-2.6022,-2.5895,-2.5896,-2.5896,0,-2.6086,-2.6088,-2.6039,-2.6048,-2.6039,-2.5978,-2.5997,-2.5982,-2.5951,-2.5947,-2.5919,-2.5907,-2.5884,-2.5901,-2.5921,-2.5915,-2.5919,-2.5893,-2.5977,-2.5986,-2.5993,-2.6019,-2.603,-2.59,-2.59,-2.5899,-2.5899,0,-2.6161,-2.6163,-2.6183,-2.6156,-2.6149,-2.6164,-2.6117,-2.6117,-2.6085,-2.6056,-2.6067,-2.6038,-2.6022,-2.6025,-2.5992,-2.6039,-2.6024,-2.5988,-2.5938,-2.6012,-2.6035,-2.6045,-2.5907,-2.5906,-2.5904,-2.5903,0,0,-2.6292,-2.624,-2.6248,-2.6235,-2.62,-2.6201,-2.6213,-2.6199,-2.62,-2.6182,-2.619,-2.6185,-2.6152,-2.614,-2.6106,-2.6121,-2.6185,-2.6083,-2.6081,-2.6102,-2.6234,-2.6261,-2.6273,-2.6159,-2.6161,-2.6162,-2.6236,0,-2.6366,-2.6383,-2.6341,-2.6368,-2.637,-2.6313,-2.6324,-2.6303,-2.6278,-2.6275,-2.6246,-2.6244,-2.62,-2.6193,-2.6205,-2.6175,-2.621,-2.6169,-2.6165,-2.6166,-2.6173,-2.6285,-2.6312,-2.6384,-2.6245,-2.6246,-2.6248,0,-2.6454,-2.6442,-2.647,-2.6434,-2.6433,-2.6443,-2.6428,-2.6427,-2.6403,-2.6383,-2.6372,-2.6333,-2.6342,-2.6296,-2.6308,-2.6281,-2.6278,-2.6263,-2.6265,-2.6261,-2.621,-2.6284,-2.6405,-2.6416,-2.6261,-2.626,-2.6259,0,-2.6546,-2.6537,-2.6552,-2.6544,-2.6502,-2.6511,-2.6494,-2.6468,-2.6463,-2.645,-2.6447,-2.6435,-2.6428,-2.642,-2.6379,-2.6349,-2.6396,-2.6347,-2.638,-2.6381,-2.6391,-2.639,-2.6513,-2.6391,-2.6391,-2.639,-2.639,0,-2.6633,-2.6652,-2.6593,-2.6603,-2.6623,-2.6575,-2.6597,-2.6574,-2.6552,-2.6557,-2.6507,-2.6512,-2.6458,-2.6458,-2.6426,-2.6441,-2.6439,-2.6423,-2.6414,-2.6426,-2.6428,-2.6422,-2.6416,-2.6393,-2.6393,-2.6392,-2.6392,0,-2.6738,-2.67,-2.6713,-2.6674,-2.6665,-2.6681,-2.6648,-2.6655,-2.6627,-2.6634,-2.6632,-2.6588,-2.6585,-2.6544,-2.6532,-2.6511,-2.6538,-2.652,-2.6546,-2.654,-2.6576,-2.6573,-2.6697,-2.6711,-2.6582,-2.6583,-2.6584,0,-2.6795,-2.6809,-2.6772,-2.6771,-2.6757,-2.6757,-2.6753,-2.6707,-2.6704,-2.6679,-2.669,-2.6683,-2.6675,-2.6673,-2.664,-2.663,-2.6611,-2.6656,-2.6609,-2.6622,-2.6611,-2.6611,-2.6612,-2.6665,-2.6667,-2.6668,-2.6669,0,-2.69,-2.6881,-2.6876,-2.6865,-2.6861,-2.685,-2.6836,-2.6839,-2.6788,-2.6787,-2.6784,-2.6778,-2.6767,-2.6761,-2.6746,-2.6729,-2.6691,-2.6685,-2.6692,-2.6704,-2.6718,-2.6711,-2.6572,-2.6681,-2.668,-2.6679,-2.6679,-2.6678,-2.6982,-2.6992,-2.6968,-2.6964,-2.695,-2.6938,-2.6943,-2.6917,-2.6914,-2.6901,-2.6875,-2.6876,-2.6853,-2.683,-2.6816,-2.6817,-2.6794,-2.6804,-2.6807,-2.681,-2.6817,-2.672,-2.6814,-2.6814,-2.6813,-2.6813,-2.6813,0,-2.7084,-2.7067,-2.7064,-2.7046,-2.7044,-2.701,-2.6993,-2.6994,-2.6996,-2.6978,-2.6972,-2.6969,-2.6964,-2.6931,-2.6922,-2.6929,-2.6911,-2.6928,-2.6926,-2.6923,-2.6838,-2.6832,-2.6942,-2.6942,-2.6942,-2.6942,-2.6942,-2.6942,-2.7137,-2.7152,-2.7131,-2.7138,-2.712,-2.7122,-2.7115,-2.7104,-2.709,-2.709,-2.7085,-2.7065,-2.7041,-2.7031,-2.7025,-2.7015,-2.7014,-2.7036,-2.7021,-2.6942,-2.6929,-2.6917,-2.6911,-2.7037,-2.7037,-2.7106,-2.7107,-2.7108]},{"header":{"parameterUnit":"m.s-1","parameterCategory":1,"la1":30.2991,"la2":30.254,"lo1":-89.0895,"lo2":-89.0444,"dx":0.0017,"dy":0.0017,"nx":28,"ny":28,"refTime":"2022-11-07T03:00:00:Z","depth":0,"parameterNumber":3,"parameterNumberName":"V-component_of_WINDS"},"data":[0,0,0,0,0,0,0,0,0,0,0,0,0,0,0,0,0,0,0,0,0,0,0,0,0,0,0,0,0,0,0,0,0,0,0,0,0,0,0,0,0,0,0,0,0,0,0,0,0,0,0,0,0,0,0,0,0,0,0.5924,0.5924,0,0.5936,0.5936,0.5936,0.5973,0.5974,0.5974,0.5975,0.5984,0.5984,0.5983,0,0,0,0,0,0,0,0,0,0,0,0,0,0.5929,0.5929,0.5924,0.5924,0.5924,0.5936,0.5936,0.5937,0.5973,0.5974,0.5975,0.5976,0.5984,0.5984,0.5983,0,0,0,0,0,0,0,0,0,0,0,0,0,0.5933,0.5929,0.5924,0.5944,0.5946,0.5936,0.5936,0.5937,0.5972,0.5974,0.5975,0.5976,0.5985,0.5984,0.5983,0.5954,0,0,0.5981,0.598,0,0,0,0,0,0,0,0,0.5932,0.5932,0.5941,0.5942,0.5944,0.5954,0.5942,0.5942,0.5972,0.5962,0.5975,0.5977,0.5973,0.5973,0.5973,0.5955,0.5955,0.5981,0.598,0.598,0.598,0,0,0,0,0,0,0,0.5932,0.5932,0.5929,0.5941,0.5943,0.5951,0.5953,0.5942,0.596,0.5963,0.5966,0.5967,0.5974,0.5973,0.5973,0.5955,0.5981,0.598,0.598,0.5979,0.5916,0.5914,0,0,0,0,0,0,0.5929,0.5932,0.5928,0.5929,0.5941,0.595,0.5952,0.595,0.5961,0.5964,0.5966,0.5969,0.5974,0.5974,0.5974,0.5942,0.598,0.5979,0.5979,0.5917,0.5915,0.5914,0,0,0,0,0,0,0.5929,0.5929,0.5928,0.5931,0.5932,0.5949,0.5946,0.5949,0.5949,0.5963,0.5966,0.5962,0.5975,0.5975,0.5959,0.5943,0.5979,0.5978,0.5918,0.5916,0.5915,0.5877,0,0,0,0,0,0,0.5929,0.5929,0.5918,0.5931,0.5931,0.5914,0.5945,0.5949,0.5948,0.5951,0.596,0.5963,0.5976,0.596,0.5959,0.5942,0.5978,0.592,0.5917,0.5915,0.588,0.5874,0.5869,0,0,0,0,0,0.5929,0.5906,0.5917,0.5917,0.5919,0.5913,0.5913,0.593,0.5946,0.5936,0.5945,0.5962,0.5945,0.5959,0.5957,0.594,0.5921,0.5918,0.5915,0.5882,0.5875,0.5869,0,0,0,0,0,0,0.5889,0.5908,0.5921,0.59,0.5905,0.5919,0.5906,0.5922,0.5921,0.5924,0.5944,0.5946,0.5928,0.5932,0.5947,0.5913,0.5936,0.5933,0.5911,0.5904,0.5899,0.5898,0.5977,0,0,0,0,0,0.5878,0.5872,0.5889,0.5869,0.5871,0.5888,0.5886,0.5899,0.5904,0.5905,0.5914,0.5917,0.5912,0.5909,0.5905,0.5881,0.5883,0.5868,0.5863,0.5859,0.5855,0.5844,0.5838,0.5905,0.5905,0.5905,0,0,0.5854,0.5864,0.5859,0.5861,0.5866,0.586,0.5889,0.588,0.5875,0.5904,0.589,0.5897,0.5901,0.5882,0.5874,0.5885,0.5838,0.5855,0.5851,0.5851,0.584,0.5834,0.5828,0.5903,0.5903,0.5904,0,0,0.5809,0.5815,0.58,0.5805,0.5813,0.5825,0.5822,0.5834,0.5839,0.5827,0.5848,0.5842,0.5834,0.5837,0.5837,0.5795,0.5811,0.5793,0.5765,0.5754,0.5748,0.5744,0.5729,0.5723,0.579,0.579,0.579,0,0.5778,0.577,0.579,0.5781,0.5782,0.5809,0.5794,0.5797,0.5803,0.5803,0.5816,0.5807,0.5812,0.5794,0.5784,0.5784,0.578,0.5792,0.5748,0.5743,0.5739,0.5725,0.572,0.5788,0.5788,0.5788,0.5788,0,0.5732,0.5726,0.5713,0.572,0.5719,0.5707,0.5725,0.5722,0.5736,0.5746,0.5733,0.5741,0.574,0.5737,0.5749,0.5721,0.5728,0.5744,0.5767,0.573,0.5718,0.5713,0.5785,0.5785,0.5786,0.5787,0,0,0.566,0.568,0.5675,0.5679,0.569,0.5686,0.5675,0.5676,0.5673,0.5676,0.5668,0.5661,0.5677,0.5677,0.569,0.568,0.5647,0.5698,0.5698,0.5688,0.5617,0.5605,0.5599,0.5658,0.5657,0.5657,0.5617,0,0.5617,0.5601,0.562,0.5599,0.5594,0.5621,0.5612,0.5618,0.5628,0.5624,0.5635,0.563,0.5651,0.5651,0.5643,0.5653,0.5633,0.5656,0.565,0.565,0.5648,0.5592,0.5579,0.5541,0.5612,0.5611,0.5611,0,0.5564,0.5567,0.5546,0.5561,0.556,0.5551,0.5554,0.5551,0.5558,0.5566,0.5568,0.5585,0.5575,0.5598,0.5585,0.56,0.5599,0.5604,0.5603,0.5603,0.5628,0.559,0.5529,0.5524,0.5603,0.5604,0.5604,0,0.5514,0.5512,0.55,0.5503,0.5519,0.5513,0.5519,0.5528,0.5528,0.553,0.5531,0.5531,0.5531,0.5532,0.5548,0.5563,0.5533,0.5557,0.5539,0.5539,0.5531,0.5531,0.5469,0.553,0.5531,0.5531,0.5531,0,0.5464,0.545,0.5478,0.5471,0.5457,0.5479,0.5464,0.5473,0.5481,0.5476,0.5499,0.5493,0.5515,0.5512,0.5524,0.5512,0.5512,0.5518,0.5521,0.5516,0.5515,0.5515,0.5518,0.5529,0.5529,0.553,0.553,0,0.5405,0.5423,0.5412,0.5429,0.5433,0.5422,0.5437,0.543,0.5443,0.5435,0.5435,0.5454,0.5451,0.5468,0.5468,0.5476,0.5458,0.5466,0.5456,0.5458,0.5439,0.5441,0.5374,0.5367,0.5433,0.5432,0.5432,0,0.5372,0.5362,0.5379,0.5378,0.5384,0.5381,0.5381,0.5403,0.5403,0.5412,0.5404,0.5404,0.5405,0.5399,0.5412,0.5412,0.5421,0.5397,0.5421,0.5416,0.5421,0.5421,0.542,0.5392,0.5391,0.5391,0.539,0,0.5311,0.5321,0.5321,0.5325,0.5326,0.533,0.5335,0.5332,0.5356,0.5354,0.5353,0.5354,0.5355,0.5354,0.5357,0.5363,0.538,0.5383,0.5379,0.5373,0.5368,0.5371,0.5442,0.5384,0.5385,0.5385,0.5386,0.5386,0.5264,0.5257,0.5269,0.5269,0.5276,0.5281,0.5276,0.5288,0.5288,0.5291,0.5304,0.5301,0.5309,0.5316,0.5321,0.5318,0.5329,0.5322,0.5321,0.5319,0.5316,0.5369,0.5318,0.5318,0.5319,0.5319,0.5319,0,0.5205,0.5214,0.5214,0.5222,0.5222,0.524,0.5247,0.5246,0.5243,0.525,0.5251,0.525,0.525,0.5264,0.5265,0.526,0.5268,0.526,0.526,0.5262,0.5306,0.5309,0.5254,0.5254,0.5254,0.5254,0.5254,0.5254,0.5174,0.5164,0.5176,0.517,0.5179,0.5177,0.5179,0.5184,0.519,0.5188,0.5189,0.5198,0.5209,0.5211,0.5212,0.5216,0.5216,0.5205,0.5211,0.5252,0.5258,0.5264,0.5268,0.5204,0.5204,0.5168,0.5167,0.5167]}]]